Christmas Island, Christmas Island

9:48 AM +07 on September 20, 2017 (GMT +0700)
Christmas Island

Weather History for YPXM - October, 2011

Change the Weather History Date:

Friday, October 28, 2011

  Actual Average Record
Temperature  
Mean Temperature 78 °F -  
Max Temperature 81 °F 77 °F 84 °F (2016)
Min Temperature 75 °F 71 °F 32 °F (2005)
Cooling Degree Days 13    
Growing Degree Days 28 (Base 50)    
Moisture  
Dew Point 74 °F    
Average Humidity 88    
Maximum Humidity 100    
Minimum Humidity 73    
Precipitation  
Precipitation 0.00 in - - ()
Sea Level Pressure  
Sea Level Pressure 29.85 in    
Wind  
Wind Speed 12 mph ()    
Max Wind Speed 17 mph    
Max Gust Speed -    
Visibility 6.2 miles    
Events      
Averages and records for this station are not official NWS values.
T = Trace of Precipitation, MM = Missing Value Source: Averaged Metar Reports

Daily Weather History Graph

Daily Weather History Graph

Search for Another Location

Airport or City:

Trip Planner

Search our weather history database for the weather conditions in past years. The results will help you decide how hot, cold, wet, or windy it might be!

Date:

Astronomy

Oct. 28, 2011 Rise Set
Actual Time 5:27 AM +07 5:54 PM +07
Civil Twilight 5:06 AM +07 6:16 PM +07
Nautical Twilight 4:41 AM +07 6:41 PM +07
Astronomical Twilight 4:15 AM +07 7:06 PM +07
Moon 6:27 AM +07 (10/28) 7:29 PM +07 (10/28)
Length of Visible Light 13h 09m
Length of Day
12h 26m
Waxing Crescent, 3% of the Moon is Illuminated
Oct 28
Waxing Crescent
Nov 2
First Quarter
Nov 11
Full
Nov 18
Last Quarter
Nov 25
New

Hourly Weather History & Observations

Time (+07) Temp. Heat Index Dew Point Humidity Pressure Visibility Wind Dir Wind Speed Gust Speed Precip Events Conditions
12:00 AM 76 °F - 75 °F 94% 29.83 in - SE 13.8 mph - -  
12:00 AM 75.2 °F - 75.2 °F 100% 29.86 in 6.2 mi SE 13.8 mph - N/A   Overcast
1:00 AM 76 °F - 74 °F 94% 29.82 in - ESE 13.8 mph - -  
1:00 AM 75.2 °F - 75.2 °F 100% 29.86 in 6.2 mi ESE 13.8 mph - N/A   Overcast
2:00 AM 75.2 °F - 75.2 °F 100% 29.83 in 6.2 mi SE 13.8 mph - N/A   Mostly Cloudy
3:00 AM 75 °F - 74 °F 96% 29.81 in - ESE 12.7 mph - -   Overcast
3:00 AM 75.2 °F - 73.4 °F 94% 29.83 in 6.2 mi ESE 12.7 mph - N/A   Overcast
4:00 AM 76 °F - 74 °F 93% 29.81 in - ESE 11.5 mph - -  
4:00 AM 75.2 °F - 75.2 °F 100% 29.83 in 6.2 mi ESE 11.5 mph - N/A   Overcast
5:00 AM 75.2 °F - 73.4 °F 94% 29.86 in 6.2 mi SE 12.7 mph - N/A   Overcast
6:00 AM 76 °F - 74 °F 92% 29.84 in - SE 12.7 mph - -  
6:00 AM 75.2 °F - 73.4 °F 94% 29.86 in 6.2 mi SE 12.7 mph - N/A   Mostly Cloudy
7:00 AM 76 °F - 74 °F 91% 29.86 in - SE 12.7 mph - -  
7:00 AM 75.2 °F - 73.4 °F 94% 29.89 in 6.2 mi SE 12.7 mph - N/A   Overcast
8:00 AM 77.0 °F - 73.4 °F 89% 29.92 in 6.2 mi ESE 15.0 mph - N/A   Overcast
9:00 AM 79 °F - 74 °F 79% 29.87 in - ESE 17.3 mph - -   Overcast
9:00 AM 78.8 °F - 73.4 °F 83% 29.92 in 6.2 mi ESE 17.3 mph - N/A   Overcast
10:00 AM 80 °F - 74 °F 77% 29.87 in - ESE 15.0 mph - -  
10:00 AM 80.6 °F 85.4 °F 73.4 °F 79% 29.92 in 6.2 mi ESE 15.0 mph - N/A   Overcast
11:00 AM 80.6 °F 85.4 °F 73.4 °F 79% 29.89 in 6.2 mi ESE 15.0 mph - N/A   Mostly Cloudy
12:00 PM 81 °F - 74 °F 73% 29.83 in - ESE 15.0 mph - -  
12:00 PM 80.6 °F 85.4 °F 73.4 °F 79% 29.86 in 6.2 mi ESE 15.0 mph - N/A   Overcast
1:00 PM 80 °F - 74 °F 76% 29.81 in - ESE 15.0 mph - -  
1:00 PM 80.6 °F 85.4 °F 73.4 °F 79% 29.83 in 6.2 mi ESE 15.0 mph - N/A   Overcast
2:00 PM 78.8 °F - 73.4 °F 83% 29.83 in 6.2 mi ESE 13.8 mph - N/A   Overcast
3:00 PM 80 °F - 74 °F 76% 29.78 in - ESE 12.7 mph - -   Overcast
3:00 PM 80.6 °F 85.4 °F 73.4 °F 79% 29.80 in 6.2 mi ESE 12.7 mph - N/A   Overcast
4:00 PM 78 °F - 73 °F 82% 29.78 in - ESE 12.7 mph - -  
4:00 PM 78.8 °F - 73.4 °F 83% 29.80 in 6.2 mi ESE 12.7 mph - N/A   Overcast
5:00 PM 77.0 °F - 73.4 °F 89% 29.83 in 6.2 mi SE 11.5 mph - N/A   Overcast
6:00 PM 77 °F - 73 °F 85% 29.79 in - SE 12.7 mph - -   Overcast
6:00 PM 77.0 °F - 73.4 °F 89% 29.83 in 6.2 mi SE 12.7 mph - N/A   Overcast
7:00 PM 76 °F - 73 °F 89% 29.81 in - SE 12.7 mph - -  
7:00 PM 77.0 °F - 73.4 °F 89% 29.83 in 6.2 mi SE 12.7 mph - N/A   Mostly Cloudy
8:00 PM 77.0 °F - 73.4 °F 89% 29.86 in 6.2 mi SE 12.7 mph - N/A   Overcast
9:00 PM 76 °F - 73 °F 89% 29.84 in - SE 11.5 mph - -   Overcast
9:00 PM 77.0 °F - 73.4 °F 89% 29.89 in 6.2 mi SE 11.5 mph - N/A   Overcast
10:00 PM 76 °F - 73 °F 88% 29.85 in - ESE 12.7 mph - -  
10:00 PM 77.0 °F - 73.4 °F 89% 29.89 in 6.2 mi ESE 12.7 mph - N/A   Overcast
11:00 PM 77.0 °F - 73.4 °F 89% 29.89 in 6.2 mi SE 11.5 mph - N/A   Overcast